Garrison, ND

12:25 PM CST on November 18, 2017 (GMT -0600)
Garrison

Weather History for KN60 - November, 2012

Change the Weather History Date:

Sunday, November 18, 2012

  Actual Average Record
Temperature  
Mean Temperature 36 °F -  
Max Temperature 46 °F - 54 °F (2007)
Min Temperature 26 °F - -2 °F (1996)
Degree Days  
Heating Degree Days 29    
Month to date heating degree days 634  
Cooling Degree Days 0    
Moisture  
Dew Point 32 °F    
Average Humidity 88    
Maximum Humidity 100    
Minimum Humidity 76    
Precipitation  
Precipitation 0.00 in - 0.79 in (1998)
Month to date precipitation 0.65  
Year to date precipitation 16.06  
Sea Level Pressure  
Sea Level Pressure 29.91 in    
Wind  
Wind Speed 6 mph (ESE)    
Max Wind Speed 14 mph    
Max Gust Speed 16 mph    
T = Trace of Precipitation, MM = Missing Value Source: NWS Daily Summary

Daily Weather History Graph

Daily Weather History Graph

Search for Another Location

Airport or City:

Trip Planner

Search our weather history database for the weather conditions in past years. The results will help you decide how hot, cold, wet, or windy it might be!

Date:

Astronomy

Nov. 18, 2012 Rise Set
Actual Time 7:56 AM CST 5:05 PM CST
Civil Twilight 7:22 AM CST 5:39 PM CST
Nautical Twilight 6:44 AM CST 6:17 PM CST
Astronomical Twilight 6:07 AM CST 6:53 PM CST
Moon 12:19 PM CST 10:33 PM CST
Length of Visible Light 10h 17m
Length of Day
9h 09m
Waxing Crescent, 30% of the Moon is Illuminated
Nov 18
Waxing Crescent
Nov 20
First Quarter
Nov 28
Full
Dec 6
Last Quarter
Dec 13
New

Hourly Weather History & Observations

Time (CST) Temp. Windchill Dew Point Humidity Pressure Visibility Wind Dir Wind Speed Gust Speed Precip Events Conditions
12:52 AM 28.9 °F - 27.0 °F 92% 30.01 in - Calm Calm - N/A   Unknown
1:52 AM 28.9 °F - 27.0 °F 92% 29.99 in - Calm Calm - N/A   Unknown
2:52 AM 27.0 °F - 26.1 °F 96% 29.98 in - Calm Calm - N/A   Unknown
3:52 AM 28.0 °F - 26.1 °F 92% 29.96 in - Calm Calm - N/A   Unknown
4:52 AM 28.0 °F 24.2 °F 27.0 °F 96% 29.95 in - East 3.5 mph - N/A   Unknown
5:52 AM 28.0 °F 21.7 °F 26.1 °F 92% 29.94 in - ESE 5.8 mph - N/A   Unknown
6:52 AM 27.0 °F 18.7 °F 26.1 °F 96% 29.94 in - ESE 8.1 mph - N/A   Unknown
7:52 AM 27.0 °F 21.6 °F 26.1 °F 96% 29.95 in - ESE 4.6 mph - N/A   Unknown
8:52 AM 30.0 °F 25.2 °F 28.9 °F 96% 29.94 in - ESE 4.6 mph - N/A   Unknown
9:52 AM 33.1 °F 26.9 °F 32.0 °F 96% 29.93 in - ESE 6.9 mph - N/A   Unknown
10:52 AM 37.0 °F 30.4 °F 34.0 °F 89% 29.91 in - ESE 9.2 mph - N/A   Unknown
11:52 AM 39.9 °F 33.9 °F 36.0 °F 86% 29.90 in - SSE 9.2 mph - N/A   Unknown
12:52 PM 42.1 °F 35.7 °F 37.0 °F 82% 29.86 in - SSE 11.5 mph - N/A   Unknown
1:52 PM 44.1 °F 39.5 °F 37.0 °F 76% 29.84 in - SE 8.1 mph - N/A   Unknown
2:52 PM 44.1 °F 39.0 °F 37.0 °F 76% 29.83 in - ESE 9.2 mph - N/A   Unknown
3:52 PM 45.0 °F 39.7 °F 37.0 °F 74% 29.83 in - SSE 10.4 mph - N/A   Unknown
4:52 PM 39.9 °F 34.5 °F 35.1 °F 83% 29.84 in - SE 8.1 mph - N/A   Unknown
5:52 PM 37.9 °F 32.7 °F 35.1 °F 89% 29.86 in - SE 6.9 mph - N/A   Unknown
6:52 PM 35.1 °F - 33.1 °F 92% 29.88 in - Calm Calm - N/A   Unknown
7:52 PM 33.1 °F - 30.9 °F 92% 29.90 in - Calm Calm - N/A   Unknown
8:52 PM 33.1 °F 30.0 °F 30.9 °F 92% 29.91 in - North 3.5 mph - N/A   Unknown
9:52 PM 39.0 °F 33.4 °F 36.0 °F 89% 29.91 in - WNW 8.1 mph - N/A   Unknown
10:52 PM 37.0 °F 31.0 °F 33.1 °F 86% 29.93 in - WNW 8.1 mph - N/A   Unknown
11:52 PM 37.0 °F 31.0 °F 32.0 °F 82% 29.94 in - NW 8.1 mph - N/A   Unknown